Regional Weather Roundup
Issued by NWS Cleveland, OH

Home | Current Version | Previous Version | Graphics & Text | Print | Product List | Glossary On
Versions: 1 2 3 4 5 6 7 8 9 10 11 12 13 14 15 16 17 18 19 20 21 22 23 24 25 26 27 28 29 30 31 32 33 34 35 36 37 38 39 40 41 42 43 44 45 46 47 48 49 50
000
ASUS41 KCLE 202112
RWRCLE
OHIO REGIONAL WEATHER ROUNDUP
NATIONAL WEATHER SERVICE WILMINGTON, OH
500 PM EDT FRI APR 20 2018

NOTE: "FAIR" INDICATES FEW OR NO CLOUDS BELOW 12,000 FEET WITH NO
SIGNIFICANT WEATHER AND/OR OBSTRUCTIONS TO VISIBILITY.

OHZ001>008-015>018-024>027-034-035-043-044-202200-
   NORTHWEST OHIO

CITY           SKY/WX    TMP DP  RH WIND       PRES   REMARKS
DEFIANCE       NOT AVBL
FINDLAY        FAIR      57  20  23 NE9       30.43S
TOLEDO EXPRESS FAIR      58  17  20 VRB3      30.43S
TOLEDO EXEC    FAIR      58  23  26 NE8       30.43F
LIMA           FAIR      54  22  28 VRB6      30.43F
$$

OHZ009>014-019>023-028>033-038-089-202200-
   NORTHEAST OHIO

CITY           SKY/WX    TMP DP  RH WIND       PRES   REMARKS
CLE-HOPKINS    FAIR      49  22  34 NW9G18    30.48S
CLE-LAKEFRONT  FAIR      44  21  40 W5        30.46F
CUY CO. ARPT   MOSUNNY   46  25  42 NW10      30.46F
LORAIN-ELYRIA  FAIR      49  18  29 N9G18     30.46F
ASHTABULA      FAIR      45  22  40 NW14G22   30.44F
AKRON-CANTON   FAIR      51  18  27 NE13      30.42S
WOOSTER        FAIR      50  20  30 N15       30.44R
MANSFIELD      FAIR      52  20  28 N8        30.43S
YOUNGSTOWN     FAIR      48  23  37 N15G22    30.41F
$$

OHZ042-051>053-060>062-070>072-077>081-202200-
  SOUTHWEST OHIO

CITY           SKY/WX    TMP DP  RH WIND       PRES   REMARKS
CINC-COVINGTON FAIR      60  24  25 NE10G18   30.41F
CINC-LUNKEN    FAIR      61  30  31 E12       30.42F
HAMILTON       FAIR      59  25  27 NE8       30.43F
DAYTON         FAIR      57  21  24 N5        30.43F
WRIGHT-PAT AFB FAIR      57  22  26 N7        30.42F
DAYTON GENERAL FAIR      59  23  25 VRB3      30.41F
WILMINGTON     FAIR      59  28  30 N8        30.41F
$$

OHZ036-037-039>041-045>050-054>059-063>069-073>076-082>088-202200-
  CENTRAL AND SOUTHEAST OHIO

CITY           SKY/WX    TMP DP  RH WIND       PRES   REMARKS
COLUMBUS       FAIR      57  22  25 N10       30.41F
OSU AIRPORT    FAIR      56  26  31 NW10      30.42S
BOLTON FIELD   SUNNY     55  25  30 NW7       30.42F
RICKENBACK AFB FAIR      56  23  27 NE9       30.42S
NEWARK         FAIR      56  24  29 MISG      30.40F
MARION         FAIR      53  23  31 N10       30.43F
LANCASTER      FAIR      56  29  35 VRB7      30.42F
ZANESVILLE     NOT AVBL
NEW PHILLY     FAIR      54  21  27 NW10G24   30.42S
$$




USA.gov is the U.S. government's official web portal to all federal, state and local government web resources and services.